Temp
51 51 52 52 51 51 52 53 53 52 51 51 51 53 52 49 52 48 49 50 51 56 55 56 58 59 59 57 58 58 60 59 59 59 58 57 57 55 54 52 51 51 50 50 50 51 51 52 54 55 56 56 56 55 55 54 54 53 55 57 56 54 54 54 54 56 61 64 64 63 62 61 61 59
51 51 51 52 51 51 51 51 51 52 52 52 52 52 51 53 53 48 48 50 50 54 54 55 55 57 57 58 57 57 58 56 58 58 58 57 56 54 53 52 51 51 50 49 48 48 50 51 52 54 54 54 54 54 54 54 54 54 55 54 54 55 56 56 57 58 60 61 61 59 59 59 60 60
52 52 51 51 51 51 51 51 51 51 52 52 52 52 52 51 53 52 49 49 52 52 52 53 55 54 55 57 55 55 56 57 57 56 56 57 54 54 54 52 51 51 50 49 49 50 51 51 51 52 53 53 53 52 53 54 54 53 52 51 52 54 55 56 56 58 59 60 61 61 60 60 60 60
51 52 52 52 52 51 52 52 51 51 51 52 52 52 52 50 50 51 49 50 51 51 52 52 54 54 53 55 54 54 55 56 55 56 55 55 54 56 56 53 50 50 50 50 50 50 51 50 50 51 51 50 52 51 51 53 52 51 50 50 49 50 51 53 54 56 57 58 59 59 57 58 59 59
51 52 52 51 51 51 53 51 51 52 51 51 51 51 52 51 51 52 50 50 50 52 50 51 52 53 54 53 53 53 53 53 54 55 55 55 54 54 54 55 52 49 49 48 49 49 48 48 49 47 47 48 49 49 50 51 49 50 48 48 48 50 52 52 52 52 53 55 56 55 56 57 57 57
51 51 52 51 50 50 51 51 53 52 52 52 52 51 52 52 51 50 50 49 49 50 50 51 52 52 52 52 54 51 51 51 53 54 54 55 55 54 54 55 55 50 49 48 48 49 48 48 48 48 47 47 48 49 49 49 48 48 46 47 48 51 51 50 49 49 50 52 53 54 55 55 56 56
50 51 52 52 51 51 51 50 50 50 51 52 52 50 50 50 50 50 51 49 47 49 50 48 50 50 50 50 51 53 53 52 52 52 53 53 54 54 54 54 55 50 48 48 48 48 49 48 48 48 48 48 47 48 48 48 48 47 46 46 48 48 48 48 47 47 46 49 51 52 53 53 54 56
51 51 51 52 51 51 51 50 50 50 50 50 51 50 49 50 49 49 50 50 49 48 48 47 49 50 49 51 52 52 53 52 52 52 52 53 52 52 53 54 54 52 49 48 48 48 49 48 48 48 48 48 48 48 48 48 48 47 47 47 47 47 47 47 47 46 47 48 49 50 51 51 52 54
52 51 53 53 51 51 51 49 50 49 49 50 50 50 49 49 48 48 48 48 48 47 48 47 46 47 50 50 50 51 50 51 51 51 51 52 51 51 52 52 54 50 49 49 49 48 48 48 48 48 48 48 47 47 47 47 47 47 48 47 47 47 46 46 46 46 46 46 46 49 50 50 52 55
53 53 53 52 52 51 52 51 49 49 49 48 49 49 49 49 47 47 46 46 46 47 47 47 48 46 47 48 48 50 49 48 48 49 50 51 50 50 49 51 52 53 53 51 52 49 49 49 49 48 48 48 47 47 47 47 48 48 47 47 47 46 46 46 46 46 46 46 46 46 47 49 51 54
53 54 54 53 53 53 53 52 50 49 48 49 49 49 48 48 47 46 46 46 46 47 46 45 45 47 47 46 47 50 49 49 48 45 47 48 50 49 48 48 51 52 51 49 48 49 49 49 50 49 48 48 48 47 47 47 48 48 47 46 46 46 46 46 46 46 46 45 45 46 45 47 50 52
53 53 54 54 54 54 53 53 52 52 51 51 50 49 49 47 47 46 45 45 46 46 45 46 46 45 46 46 46 48 48 47 47 47 45 44 45 46 47 48 48 49 49 49 50 50 50 49 49 48 48 47 47 47 48 49 49 49 47 46 45 45 45 45 45 45 45 46 46 46 45 45 45 49
53 53 54 54 55 54 55 52 52 52 51 51 50 49 49 48 47 46 46 45 45 45 46 45 44 45 46 45 44 46 45 44 44 45 44 44 45 45 45 48 50 48 47 48 48 49 49 49 49 51 50 52 50 50 48 49 49 48 46 45 45 45 45 45 45 45 45 45 44 44 44 45 45 45
52 53 53 54 56 54 53 51 47 47 47 50 52 51 50 49 47 47 47 46 46 46 46 46 45 47 46 44 44 44 44 44 44 43 43 42 43 44 44 47 48 47 47 45 45 47 49 48 49 50 49 50 50 51 51 52 50 48 45 45 45 45 45 44 44 45 45 45 44 44 43 44 44 44
53 53 55 55 55 54 52 52 45 45 45 46 46 46 48 49 49 47 46 46 45 47 46 44 44 45 45 44 43 44 43 43 43 42 42 42 42 41 40 40 45 46 46 44 43 44 48 48 47 48 49 49 50 50 51 47 46 46 45 45 44 44 44 44 44 44 44 44 44 44 43 43 44 44
54 54 54 55 55 55 55 54 50 47 44 44 43 43 43 43 44 45 48 47 45 44 45 43 44 43 44 43 42 43 42 43 42 42 41 41 41 40 40 40 40 46 46 42 41 41 47 48 47 46 48 49 49 49 47 45 45 45 45 45 44 44 44 43 44 43 44 44 43 43 43 43 43 42
55 54 53 53 53 54 55 54 52 52 49 44 43 43 42 41 41 39 40 42 48 46 45 45 43 43 43 43 43 43 43 41 41 42 42 41 40 40 39 40 41 43 45 42 40 40 44 46 45 44 47 48 48 49 47 46 45 45 45 45 44 44 44 44 43 43 43 43 43 43 43 42 41 41
53 53 53 53 52 52 54 53 52 52 51 49 48 47 47 46 43 40 39 38 40 43 46 45 45 43 42 45 43 44 43 42 42 41 41 41 40 39 39 40 40 42 44 41 40 39 43 45 43 43 46 48 48 48 47 45 45 44 44 44 44 44 44 44 43 43 42 42 42 42 42 42 41 41
51 51 51 52 52 51 51 51 51 51 50 49 47 46 44 44 43 43 43 43 43 43 42 44 43 43 43 43 43 43 43 43 43 42 41 40 40 39 40 40 41 42 44 42 41 37 42 44 42 43 45 47 47 48 46 45 44 44 44 44 43 43 44 44 44 43 42 42 41 41 41 41 41 40
48 49 50 50 50 50 50 48 44 48 50 49 47 44 42 42 42 42 42 41 42 43 43 44 44 43 42 41 43 42 42 42 41 41 41 40 39 38 38 38 40 39 43 43 41 38 40 43 41 43 46 46 45 47 48 46 45 44 44 43 43 43 44 44 44 43 43 42 42 42 41 41 40 40
45 47 49 49 49 48 49 45 42 42 46 49 47 44 42 41 41 40 41 40 39 39 39 39 39 38 38 38 38 38 38 40 41 40 39 39 39 37 36 37 38 39 41 42 42 40 38 42 42 41 44 45 44 46 48 49 45 43 43 43 43 44 44 44 44 44 43 43 43 43 42 41 40 41
43 46 50 48 46 45 44 39 40 41 47 47 46 45 43 42 41 41 40 40 39 38 38 38 38 38 38 38 38 39 39 38 40 40 38 41 39 37 37 35 37 38 39 41 43 39 39 42 42 41 43 44 45 45 48 47 46 44 44 45 44 43 43 43 44 44 44 43 43 43 42 41 41 47
41 42 44 45 44 44 42 38 40 41 45 46 45 45 44 43 42 41 39 40 40 39 40 38 39 39 39 39 39 40 38 38 39 41 40 40 38 37 37 37 36 35 37 41 43 39 40 40 42 41 39 38 43 46 46 47 48 49 49 49 49 44 43 43 43 43 43 43 42 42 42 41 42 47
41 42 42 42 38 38 38 38 38 39 41 45 43 43 42 42 42 40 38 39 38 38 38 37 37 38 38 37 38 38 38 39 40 40 40 39 39 37 37 37 36 34 36 42 44 39 40 41 40 43 40 36 35 42 45 45 47 47 48 48 48 45 45 44 44 44 43 43 43 42 42 41 41 47
41 41 41 42 40 38 38 38 38 38 38 39 42 43 43 42 41 37 39 39 39 38 38 38 38 38 38 37 37 37 37 39 40 40 40 40 39 39 37 37 36 36 38 42 42 41 38 40 39 40 40 40 40 39 42 44 46 46 47 47 46 48 48 48 47 49 45 43 43 42 41 41 41 43
40 40 41 41 39 38 38 38 38 38 38 39 42 39 37 36 36 40 39 38 38 38 37 37 37 37 37 37 37 38 38 39 40 40 40 40 40 40 40 39 37 36 38 42 39 41 39 38 39 38 39 38 38 40 38 40 43 45 46 45 45 44 44 44 45 46 47 49 50 47 45 41 41 41
40 41 40 41 39 37 37 37 37 37 38 39 39 36 36 36 35 37 38 38 37 36 36 36 36 36 36 36 37 37 38 39 39 39 40 40 40 40 41 41 41 40 41 42 43 42 40 39 41 38 37 39 36 38 38 37 39 44 44 45 46 47 47 46 45 46 47 47 48 43 41 40 39 40
42 41 41 40 37 37 37 37 37 36 37 38 36 36 35 35 36 38 37 36 36 36 36 36 36 36 37 36 36 37 39 39 39 39 39 39 40 40 40 41 41 42 42 42 42 42 41 39 40 41 40 37 35 34 34 39 40 41 40 43 44 45 46 46 45 45 45 46 46 46 46 47 48 45
42 39 37 36 37 37 37 37 37 37 36 35 36 36 36 37 37 37 37 36 36 36 35 35 35 35 36 37 37 38 37 37 37 37 38 38 39 39 39 39 39 40 40 41 42 42 42 40 40 41 40 39 37 37 36 36 38 38 40 39 39 43 45 46 45 44 45 45 44 44 45 46 46 46
37 36 37 37 37 38 39 40 39 39 38 36 36 36 36 36 37 37 37 36 35 35 35 35 35 36 36 36 37 36 36 35 36 36 36 36 36 37 37 37 38 39 40 40 41 42 42 41 40 40 38 38 38 37 37 36 36 39 39 38 40 43 43 45 45 45 43 42 43 42 43 43 43 43
39 39 39 38 37 37 36 36 36 36 36 37 36 36 36 36 36 36 36 36 35 35 35 35 35 35 35 36 35 35 35 34 35 36 35 35 35 35 36 35 34 36 39 41 41 41 41 41 40 40 37 37 38 38 39 39 37 37 39 40 39 35 40 43 43 43 43 43 43 40 39 39 39 38
39 38 37 37 38 38 37 37 36 35 35 34 33 35 35 35 34 35 35 36 35 35 34 34 34 34 34 33 34 34 34 34 35 36 35 35 34 35 35 33 32 34 36 38 40 41 38 41 40 40 39 38 36 37 38 37 35 36 37 38 38 39 40 40 42 43 45 44 42 42 43 42 41 41
37 37 37 36 35 35 34 33 33 34 33 33 33 33 35 35 34 34 35 34 34 34 33 33 32 32 32 32 34 34 33 34 35 36 35 36 35 35 35 32 32 33 33 34 37 39 41 40 40 40 40 40 40 38 35 33 36 38 37 38 37 37 39 40 40 41 43 40 39 40 40 41 41 40
36 34 34 33 34 33 32 31 30 30 29 29 31 31 31 32 33 33 33 33 34 34 33 33 32 32 32 32 33 33 33 34 35 36 35 35 36 33 32 32 33 34 34 35 36 37 39 39 39 39 39 39 40 40 39 35 35 37 39 38 38 37 40 40 40 41 40 39 38 37 37 38 40 40
36 34 34 31 30 29 30 29 30 28 28 29 29 31 30 31 31 31 32 33 33 33 34 34 34 33 33 33 33 33 33 33 34 35 36 36 35 33 33 32 32 34 34 34 35 37 38 37 37 35 35 36 36 39 41 40 37 37 39 39 39 38 38 39 38 39 40 39 38 36 36 38 38 40
33 34 33 31 29 27 29 29 28 27 29 28 29 30 30 32 32 31 32 33 34 33 34 34 34 34 34 33 33 33 33 33 33 33 33 33 33 33 34 33 33 34 34 34 35 36 37 36 34 32 30 31 31 31 34 41 40 39 36 36 39 38 38 38 38 38 37 37 37 36 35 35 37 39
31 31 31 31 30 29 29 29 28 30 30 30 30 31 31 31 32 33 33 32 33 33 34 34 34 34 34 34 33 33 33 33 32 33 33 34 34 33 32 33 33 34 34 35 36 36 36 34 34 32 30 29 29 28 32 37 38 41 40 36 38 38 37 36 36 35 36 37 37 36 35 36 37 36
31 30 31 32 33 33 30 30 28 28 29 30 30 31 32 33 33 33 34 33 33 33 33 34 34 34 34 34 33 33 33 34 33 33 33 33 33 32 32 32 33 33 34 35 35 35 36 34 33 33 31 29 28 29 30 35 37 38 39 39 36 36 36 35 34 34 36 37 36 36 36 36 35 34
33 31 31 32 33 33 31 29 28 29 32 32 31 32 32 32 32 33 32 32 33 33 33 34 34 34 34 34 34 33 32 32 32 32 33 33 33 32 32 32 32 33 33 33 34 35 34 33 33 33 32 31 30 31 33 32 33 38 39 38 38 36 36 36 34 35 35 35 34 33 33 34 35 34
33 33 33 33 33 33 33 30 30 31 31 32 32 33 32 32 32 32 32 32 32 33 34 34 34 34 34 34 34 34 33 32 32 32 32 32 33 32 32 32 32 32 32 32 32 33 33 33 34 34 34 34 35 36 36 35 36 36 36 37 38 37 36 36 35 35 35 35 34 33 33 34 33 33
32 33 31 33 33 33 33 32 32 31 32 32 32 31 32 32 31 31 32 33 33 33 33 34 34 34 34 34 34 33 32 32 33 33 32 32 32 32 32 32 32 33 31 31 32 32 33 35 36 35 36 36 36 36 34 31 30 33 35 38 38 37 37 37 36 35 34 34 34 34 33 33 32 33
32 33 32 32 33 31 32 33 33 31 30 31 31 30 31 31 32 32 32 32 32 33 34 34 34 34 34 34 34 33 32 32 32 32 32 32 32 32 32 32 31 32 32 31 32 33 36 37 36 36 35 34 33 31 29 31 31 33 35 36 36 36 36 36 36 37 37 35 34 33 32 33 34 32
32 33 33 31 29 31 32 31 31 31 30 31 30 30 31 31 32 31 31 32 33 33 33 33 34 34 34 34 33 33 32 32 32 32 32 32 32 32 32 32 32 33 33 33 34 35 36 36 36 35 34 33 33 32 30 32 33 34 35 35 35 34 34 35 36 36 36 37 36 36 36 35 34 31
31 32 33 31 31 30 29 30 30 30 29 30 30 30 30 30 30 30 30 31 32 32 33 33 33 33 33 33 33 33 33 33 33 32 32 32 32 33 32 32 33 33 33 33 33 34 36 36 36 36 33 33 33 32 31 32 33 34 35 35 34 33 33 34 34 34 35 34 34 35 35 35 35 36
32 32 29 27 26 24 26 28 29 29 28 30 30 29 29 29 29 29 29 30 31 32 32 32 32 33 33 33 32 31 32 33 33 33 33 33 33 33 33 33 33 33 33 33 33 33 35 35 36 36 34 34 34 33 33 34 33 34 34 33 32 33 33 34 33 33 33 33 33 34 34 34 34 34
MSLP
1021.54 1021.51 1021.51 1021.62 1021.71 1021.78 1021.78 1021.74 1021.74 1021.78 1021.91 1021.98 1021.98 1021.86 1021.54 1021.71 1022.18 1022.66 1023.47 1023.95 1023.91 1023.91 1024.06 1023.95 1023.95 1023.95 1023.83 1023.74 1023.62 1023.42 1023.30 1023.30 1023.10 1023.07 1023.03 1023.03 1022.95 1022.86 1022.62 1022.51 1022.39 1022.30 1022.27 1022.22 1022.15 1022.07 1021.98 1021.91 1021.78 1021.74 1021.71 1021.66 1021.66 1021.66 1021.62 1021.54 1021.47 1021.34 1021.22 1021.15 1021.10 1021.07 1021.03 1020.98 1020.95 1020.91 1020.91 1020.86 1020.86 1020.98 1021.15 1021.15 1021.42 1021.59
1021.62 1021.71 1021.78 1021.83 1021.95 1022.22 1021.98 1022.07 1022.15 1021.98 1021.95 1021.95 1021.98 1022.07 1022.22 1021.91 1021.74 1022.42 1023.15 1023.91 1024.31 1024.06 1024.34 1024.39 1024.39 1024.22 1024.15 1023.95 1023.83 1023.74 1023.66 1023.59 1023.39 1023.27 1023.22 1023.22 1023.27 1023.15 1022.98 1022.91 1022.78 1022.71 1022.62 1022.59 1022.51 1022.39 1022.30 1022.18 1022.10 1022.03 1021.95 1021.91 1021.83 1021.74 1021.71 1021.66 1021.62 1021.51 1021.39 1021.27 1021.18 1021.10 1021.03 1020.95 1020.91 1020.91 1020.83 1020.78 1020.78 1020.83 1020.95 1021.10 1021.18 1021.30
1021.62 1021.62 1021.74 1021.95 1022.10 1022.22 1022.27 1022.42 1022.47 1022.51 1022.39 1022.42 1022.47 1022.42 1022.22 1022.22 1022.10 1022.27 1022.71 1023.30 1024.39 1024.58 1024.43 1024.55 1024.58 1024.55 1024.46 1024.34 1024.19 1024.03 1023.95 1023.86 1023.71 1023.59 1023.54 1023.54 1023.51 1023.27 1023.18 1023.18 1023.10 1022.98 1022.91 1022.86 1022.78 1022.74 1022.66 1022.59 1022.51 1022.42 1022.30 1022.22 1022.15 1021.98 1021.83 1021.66 1021.59 1021.51 1021.47 1021.39 1021.27 1021.15 1021.07 1020.98 1020.86 1020.78 1020.74 1020.71 1020.66 1020.66 1020.71 1020.78 1020.91 1021.03
1021.83 1021.78 1021.86 1021.95 1022.03 1022.18 1022.27 1022.47 1022.59 1022.62 1022.83 1022.78 1022.66 1022.62 1022.54 1022.66 1022.59 1022.47 1022.66 1023.07 1023.91 1024.62 1024.62 1024.70 1024.62 1024.58 1024.58 1024.55 1024.34 1024.31 1024.19 1024.10 1023.95 1023.86 1023.78 1023.74 1023.54 1023.42 1023.42 1023.39 1023.34 1023.30 1023.22 1023.15 1023.07 1023.03 1022.98 1022.95 1022.86 1022.78 1022.71 1022.62 1022.47 1022.30 1022.10 1021.91 1021.74 1021.62 1021.51 1021.42 1021.34 1021.27 1021.15 1021.03 1020.95 1020.83 1020.71 1020.66 1020.62 1020.59 1020.62 1020.62 1020.66 1020.78
1022.07 1022.03 1022.07 1022.18 1022.34 1022.42 1022.15 1022.54 1022.78 1022.86 1023.07 1023.10 1023.15 1023.18 1022.95 1022.86 1022.98 1022.78 1022.98 1023.34 1024.10 1024.55 1024.98 1024.82 1024.79 1024.70 1024.62 1024.58 1024.67 1024.55 1024.46 1024.34 1024.22 1024.10 1024.06 1023.95 1023.83 1023.78 1023.71 1023.62 1023.59 1023.59 1023.51 1023.42 1023.34 1023.27 1023.22 1023.18 1023.15 1023.07 1022.98 1022.86 1022.74 1022.59 1022.39 1022.15 1021.98 1021.78 1021.66 1021.51 1021.39 1021.30 1021.18 1021.15 1021.07 1020.98 1020.86 1020.74 1020.62 1020.54 1020.54 1020.51 1020.51 1020.54
1022.22 1022.18 1022.15 1022.27 1022.42 1022.54 1022.34 1022.54 1022.62 1022.86 1022.98 1022.98 1022.98 1023.22 1023.10 1023.22 1023.30 1023.39 1023.15 1023.62 1023.74 1024.19 1024.62 1024.74 1024.94 1024.79 1024.79 1024.70 1024.79 1024.74 1024.67 1024.58 1024.51 1024.39 1024.27 1024.19 1024.10 1024.10 1023.98 1023.83 1023.74 1023.74 1023.71 1023.62 1023.51 1023.47 1023.39 1023.34 1023.27 1023.15 1023.07 1022.95 1022.86 1022.71 1022.54 1022.34 1022.15 1021.95 1021.78 1021.59 1021.47 1021.34 1021.27 1021.22 1021.18 1021.10 1020.98 1020.86 1020.71 1020.59 1020.47 1020.42 1020.39 1020.39
1022.39 1022.27 1022.22 1022.34 1022.51 1022.59 1022.42 1022.66 1022.95 1023.10 1022.98 1023.15 1022.91 1023.34 1023.47 1023.34 1023.54 1023.59 1023.34 1023.42 1024.03 1024.03 1024.62 1025.15 1024.91 1024.91 1024.82 1024.82 1024.94 1024.82 1024.79 1024.74 1024.70 1024.62 1024.55 1024.46 1024.43 1024.34 1024.27 1024.15 1023.98 1023.86 1023.83 1023.74 1023.66 1023.54 1023.47 1023.39 1023.27 1023.15 1023.03 1022.91 1022.78 1022.62 1022.51 1022.34 1022.15 1021.98 1021.83 1021.71 1021.54 1021.47 1021.34 1021.27 1021.15 1021.07 1021.07 1020.95 1020.78 1020.62 1020.54 1020.42 1020.34 1020.30
1022.30 1022.27 1022.27 1022.34 1022.47 1022.47 1022.42 1022.66 1022.86 1023.18 1023.18 1022.98 1023.10 1023.22 1023.51 1023.42 1023.51 1023.62 1023.54 1023.51 1023.66 1024.27 1024.10 1025.06 1025.03 1025.03 1024.91 1024.82 1024.91 1024.94 1024.86 1024.82 1024.70 1024.74 1024.70 1024.58 1024.58 1024.55 1024.43 1024.31 1024.10 1023.98 1023.91 1023.86 1023.78 1023.66 1023.59 1023.47 1023.30 1023.18 1023.07 1022.91 1022.74 1022.62 1022.47 1022.30 1022.15 1022.03 1021.86 1021.78 1021.66 1021.51 1021.39 1021.27 1021.15 1021.03 1020.86 1020.74 1020.71 1020.59 1020.51 1020.47 1020.39 1020.27
1022.03 1022.15 1022.10 1022.22 1022.51 1022.51 1022.42 1022.74 1022.74 1022.98 1022.86 1023.27 1023.10 1023.18 1023.54 1023.54 1023.78 1023.83 1023.74 1023.74 1023.83 1023.86 1024.03 1024.70 1025.15 1025.19 1024.98 1024.94 1024.91 1024.94 1024.82 1024.74 1024.74 1024.79 1024.70 1024.58 1024.58 1024.55 1024.51 1024.34 1024.15 1023.98 1023.95 1023.91 1023.83 1023.74 1023.66 1023.51 1023.39 1023.22 1023.07 1022.91 1022.74 1022.59 1022.42 1022.27 1022.10 1021.95 1021.83 1021.74 1021.62 1021.51 1021.39 1021.22 1021.07 1020.95 1020.78 1020.62 1020.51 1020.39 1020.30 1020.30 1020.27 1020.15
1022.18 1021.95 1021.98 1022.10 1022.34 1022.42 1022.30 1022.51 1022.74 1022.91 1022.91 1023.30 1023.27 1023.34 1023.59 1023.78 1023.91 1023.74 1024.06 1024.15 1024.06 1024.06 1024.43 1024.46 1024.70 1025.15 1024.98 1024.94 1024.91 1024.94 1024.98 1024.91 1024.79 1024.67 1024.62 1024.55 1024.55 1024.46 1024.31 1024.22 1024.10 1023.95 1023.91 1023.86 1023.78 1023.71 1023.59 1023.47 1023.34 1023.22 1023.07 1022.91 1022.74 1022.59 1022.42 1022.22 1022.07 1021.91 1021.74 1021.62 1021.54 1021.39 1021.27 1021.07 1020.91 1020.78 1020.66 1020.54 1020.34 1020.22 1020.10 1020.07 1019.98 1019.91
1022.51 1022.18 1021.98 1022.03 1022.18 1022.15 1022.18 1022.30 1022.47 1022.59 1022.74 1022.86 1022.98 1023.15 1023.39 1023.83 1023.51 1023.59 1023.86 1024.06 1023.95 1023.98 1024.19 1024.74 1024.94 1024.86 1025.10 1025.06 1024.82 1024.86 1024.94 1024.91 1024.98 1024.98 1024.39 1024.15 1024.31 1024.46 1024.51 1024.19 1023.98 1023.91 1023.91 1023.91 1023.91 1023.83 1023.71 1023.59 1023.34 1023.15 1022.98 1022.78 1022.62 1022.51 1022.34 1022.15 1021.98 1021.78 1021.66 1021.54 1021.42 1021.27 1021.07 1020.91 1020.71 1020.59 1020.47 1020.39 1020.27 1020.15 1019.98 1019.83 1019.71 1019.66
1022.15 1022.07 1021.98 1021.98 1022.10 1022.15 1022.18 1022.27 1022.51 1022.71 1022.62 1022.95 1022.78 1023.22 1023.10 1023.42 1023.47 1023.62 1023.91 1023.95 1023.91 1023.86 1024.03 1024.31 1024.46 1024.94 1024.91 1025.03 1025.15 1025.03 1024.91 1024.74 1024.67 1024.98 1025.10 1024.67 1024.34 1024.34 1024.46 1024.43 1024.06 1023.95 1023.95 1023.86 1023.71 1023.59 1023.47 1023.30 1023.15 1022.98 1022.83 1022.66 1022.51 1022.34 1022.15 1021.95 1021.78 1021.66 1021.54 1021.47 1021.30 1021.15 1020.98 1020.83 1020.62 1020.47 1020.30 1020.18 1020.10 1019.95 1019.83 1019.66 1019.54 1019.39
1021.95 1021.98 1022.03 1022.10 1022.03 1022.07 1021.98 1022.15 1022.30 1022.27 1022.30 1022.47 1022.62 1023.15 1023.15 1023.18 1023.27 1023.66 1023.78 1023.86 1023.86 1023.95 1023.83 1024.10 1024.79 1024.51 1024.58 1024.86 1024.91 1024.70 1024.79 1025.10 1025.31 1025.39 1025.43 1025.27 1025.03 1024.74 1024.34 1024.06 1023.98 1024.06 1024.03 1023.91 1023.74 1023.51 1023.47 1023.18 1022.91 1022.78 1022.62 1022.42 1022.30 1022.15 1022.07 1021.83 1021.62 1021.51 1021.42 1021.34 1021.15 1020.98 1020.86 1020.71 1020.54 1020.34 1020.15 1019.98 1019.83 1019.71 1019.59 1019.42 1019.27 1019.18
1021.86 1021.71 1021.78 1021.78 1021.83 1021.98 1022.03 1021.98 1022.10 1022.15 1022.22 1022.22 1022.27 1022.54 1023.07 1023.03 1023.18 1023.34 1023.54 1023.71 1023.86 1023.86 1023.78 1023.86 1023.91 1023.62 1023.74 1024.39 1024.82 1024.86 1025.06 1025.46 1025.51 1025.55 1025.55 1025.31 1025.06 1024.82 1024.34 1023.86 1023.91 1023.98 1024.06 1023.95 1023.54 1023.27 1023.27 1023.18 1022.74 1022.66 1022.51 1022.30 1022.27 1022.07 1021.86 1021.66 1021.54 1021.42 1021.34 1021.22 1021.03 1020.86 1020.74 1020.59 1020.39 1020.18 1019.98 1019.78 1019.59 1019.42 1019.27 1019.15 1019.03 1018.91
1021.62 1021.66 1021.62 1021.66 1021.66 1021.71 1021.83 1021.98 1022.15 1022.18 1022.18 1022.27 1022.34 1022.51 1022.66 1022.78 1022.86 1023.27 1023.51 1023.62 1023.83 1023.86 1023.98 1024.34 1024.31 1024.06 1023.91 1024.34 1024.98 1025.03 1025.27 1025.39 1025.46 1025.46 1025.55 1025.43 1025.15 1025.10 1025.06 1024.34 1023.66 1024.03 1024.19 1024.15 1023.98 1023.22 1023.10 1023.07 1022.78 1022.51 1022.34 1022.22 1022.10 1021.95 1021.74 1021.62 1021.47 1021.30 1021.22 1021.10 1020.95 1020.78 1020.62 1020.47 1020.27 1020.03 1019.83 1019.62 1019.47 1019.27 1019.07 1018.91 1018.78 1018.66
1021.47 1021.47 1021.47 1021.42 1021.47 1021.47 1021.47 1021.66 1021.98 1022.22 1022.22 1022.18 1022.27 1022.47 1022.66 1022.91 1023.07 1023.10 1023.18 1023.39 1023.78 1023.98 1023.98 1024.15 1024.19 1024.43 1024.27 1024.51 1024.91 1025.03 1025.27 1025.31 1025.43 1025.46 1025.46 1025.39 1025.39 1025.27 1025.22 1025.19 1024.86 1023.91 1024.19 1024.34 1024.10 1023.54 1023.03 1022.98 1022.83 1022.59 1022.34 1022.15 1022.03 1021.86 1021.71 1021.51 1021.34 1021.15 1021.10 1020.98 1020.83 1020.62 1020.51 1020.34 1020.15 1019.95 1019.71 1019.51 1019.34 1019.15 1018.95 1018.71 1018.54 1018.42
1021.18 1021.27 1021.34 1021.34 1021.39 1021.39 1021.47 1021.62 1021.91 1022.10 1022.39 1022.39 1022.39 1022.59 1022.98 1023.30 1023.34 1023.47 1023.59 1023.51 1023.39 1023.66 1023.91 1023.91 1024.15 1024.39 1024.55 1024.58 1024.86 1025.22 1025.31 1025.58 1025.34 1025.22 1025.06 1025.19 1025.39 1025.43 1025.39 1025.06 1024.74 1024.27 1024.34 1024.46 1024.06 1023.47 1022.95 1022.95 1022.86 1022.74 1022.27 1022.15 1021.95 1021.74 1021.51 1021.34 1021.15 1020.98 1020.91 1020.86 1020.66 1020.51 1020.34 1020.18 1019.98 1019.78 1019.54 1019.39 1019.27 1019.07 1018.86 1018.62 1018.42 1018.22
1021.15 1021.15 1021.22 1021.27 1021.27 1021.39 1021.42 1021.59 1021.83 1021.98 1022.07 1022.34 1022.74 1023.03 1023.22 1023.51 1023.71 1023.86 1023.91 1023.83 1023.86 1024.03 1023.98 1024.06 1024.10 1024.67 1025.03 1024.82 1025.03 1025.27 1025.39 1025.39 1025.27 1025.27 1025.10 1025.22 1025.27 1025.22 1025.19 1025.10 1024.98 1024.55 1024.43 1024.51 1024.22 1023.62 1022.74 1022.74 1022.83 1022.62 1022.15 1021.95 1021.78 1021.62 1021.42 1021.18 1020.95 1020.78 1020.74 1020.66 1020.47 1020.30 1020.15 1019.98 1019.83 1019.62 1019.47 1019.27 1019.10 1018.98 1018.83 1018.59 1018.34 1018.10
1021.18 1021.18 1021.22 1021.22 1021.18 1021.30 1021.42 1021.54 1021.62 1021.83 1022.07 1022.39 1022.83 1023.18 1023.47 1023.71 1023.91 1023.95 1023.98 1023.98 1024.06 1024.22 1024.39 1024.43 1024.51 1024.67 1024.91 1024.98 1025.06 1025.27 1025.39 1025.46 1025.43 1025.51 1025.51 1025.46 1025.43 1025.43 1025.27 1025.03 1024.79 1024.55 1024.27 1024.27 1024.31 1023.78 1022.86 1022.78 1022.62 1022.22 1022.03 1021.74 1021.59 1021.39 1021.15 1020.95 1020.71 1020.59 1020.54 1020.47 1020.30 1020.18 1019.95 1019.78 1019.62 1019.47 1019.34 1019.18 1018.98 1018.78 1018.66 1018.47 1018.27 1018.03
1021.18 1021.15 1021.15 1021.15 1021.15 1021.27 1021.39 1021.59 1021.74 1021.78 1021.95 1022.27 1022.74 1023.18 1023.62 1023.98 1024.27 1024.39 1024.51 1024.31 1024.27 1024.34 1024.51 1024.58 1024.67 1024.79 1024.91 1025.03 1025.15 1025.31 1025.43 1025.51 1025.55 1025.55 1025.55 1025.46 1025.46 1025.39 1025.10 1024.74 1024.43 1024.46 1024.10 1024.15 1024.10 1023.74 1023.10 1022.95 1022.78 1022.07 1021.74 1021.59 1021.34 1021.10 1020.91 1020.54 1020.39 1020.39 1020.34 1020.30 1020.18 1019.98 1019.83 1019.66 1019.51 1019.34 1019.18 1019.03 1018.83 1018.62 1018.47 1018.30 1018.10 1017.86
1021.47 1021.34 1021.22 1021.18 1021.22 1021.42 1021.54 1021.71 1021.86 1022.07 1022.10 1022.39 1022.78 1023.18 1023.59 1024.03 1024.15 1024.55 1024.74 1024.70 1024.67 1024.74 1024.86 1024.91 1024.91 1024.94 1025.03 1025.15 1025.22 1025.31 1025.39 1025.43 1025.46 1025.58 1025.55 1025.15 1025.15 1025.22 1024.86 1024.43 1024.39 1024.06 1024.06 1023.83 1023.71 1023.59 1023.22 1022.78 1022.71 1022.10 1021.62 1021.42 1021.18 1020.83 1020.59 1020.22 1020.22 1020.22 1020.18 1020.10 1019.98 1019.83 1019.71 1019.54 1019.34 1019.18 1019.07 1018.86 1018.66 1018.47 1018.34 1018.18 1017.95 1017.66
1021.78 1021.66 1021.42 1021.42 1021.51 1021.66 1021.91 1022.03 1022.03 1022.18 1022.15 1022.39 1022.74 1022.98 1023.30 1023.66 1023.91 1024.39 1024.74 1024.74 1024.82 1024.98 1024.98 1025.03 1024.98 1024.94 1025.03 1025.15 1025.22 1025.27 1025.27 1025.34 1025.34 1025.34 1025.15 1024.82 1025.06 1025.06 1024.98 1024.67 1024.22 1024.06 1024.10 1023.66 1023.47 1023.51 1022.91 1022.66 1022.54 1022.18 1021.39 1021.10 1020.86 1020.71 1020.30 1020.15 1020.10 1020.07 1019.95 1019.83 1019.71 1019.62 1019.51 1019.34 1019.18 1018.98 1018.83 1018.66 1018.54 1018.39 1018.22 1018.07 1017.86 1017.54
1022.15 1022.10 1022.03 1021.91 1021.78 1021.91 1022.10 1022.15 1022.27 1022.34 1022.34 1022.51 1022.74 1022.95 1023.18 1023.47 1023.66 1024.10 1024.43 1024.43 1024.58 1024.70 1024.74 1024.74 1024.70 1024.79 1024.98 1025.10 1025.15 1025.03 1025.06 1025.06 1025.10 1025.06 1024.94 1024.94 1025.03 1024.82 1024.62 1024.58 1024.39 1024.03 1023.62 1023.47 1023.42 1023.34 1022.62 1022.74 1022.30 1022.27 1021.59 1021.15 1020.47 1020.34 1020.15 1020.15 1020.07 1019.98 1019.83 1019.71 1019.54 1019.39 1019.27 1019.10 1018.95 1018.78 1018.62 1018.51 1018.39 1018.22 1018.10 1017.95 1017.83 1017.54
1022.47 1022.54 1022.54 1022.54 1022.47 1022.39 1022.39 1022.47 1022.54 1022.62 1022.62 1022.66 1022.98 1023.07 1023.07 1023.30 1023.47 1024.22 1024.39 1024.46 1024.58 1024.67 1024.74 1024.74 1024.94 1024.91 1024.98 1025.03 1025.03 1024.94 1024.82 1024.70 1024.70 1024.74 1024.79 1024.79 1024.79 1024.74 1024.55 1024.46 1024.46 1024.27 1023.71 1023.34 1023.34 1023.34 1022.74 1022.78 1022.39 1022.22 1022.30 1022.10 1020.95 1020.15 1020.18 1020.03 1019.98 1019.83 1019.74 1019.51 1019.34 1019.15 1018.95 1018.83 1018.66 1018.51 1018.39 1018.22 1018.15 1018.07 1017.95 1017.83 1017.78 1017.54
1022.62 1022.78 1022.91 1022.98 1022.95 1022.83 1022.86 1022.91 1022.95 1023.03 1023.10 1023.22 1023.34 1023.47 1023.51 1023.71 1023.98 1024.34 1024.34 1024.58 1024.70 1024.67 1024.74 1024.82 1024.91 1024.86 1024.91 1024.86 1024.86 1024.79 1024.74 1024.58 1024.51 1024.51 1024.46 1024.46 1024.51 1024.51 1024.43 1024.27 1024.10 1023.83 1023.42 1023.34 1023.30 1023.30 1022.86 1022.54 1022.39 1022.10 1021.86 1021.66 1020.98 1020.51 1019.91 1019.98 1019.71 1019.66 1019.51 1019.42 1019.15 1018.91 1018.83 1018.62 1018.47 1018.22 1018.07 1017.95 1017.86 1017.83 1017.78 1017.71 1017.62 1017.54
1023.03 1023.07 1023.15 1023.22 1023.27 1023.15 1023.18 1023.27 1023.39 1023.51 1023.59 1023.66 1023.74 1024.06 1024.15 1024.27 1024.31 1024.43 1024.58 1024.67 1024.62 1024.67 1024.79 1024.91 1024.91 1024.82 1024.79 1024.67 1024.62 1024.62 1024.58 1024.46 1024.39 1024.34 1024.27 1024.15 1024.10 1024.10 1024.03 1023.91 1023.71 1023.34 1022.86 1022.91 1023.10 1023.07 1022.83 1022.30 1022.27 1021.98 1021.59 1021.47 1020.51 1020.66 1020.07 1019.71 1019.59 1019.34 1019.22 1019.10 1019.07 1018.95 1018.83 1018.62 1018.42 1018.18 1017.95 1017.66 1017.51 1017.47 1017.51 1017.51 1017.42 1017.34
1023.10 1023.30 1023.34 1023.42 1023.39 1023.34 1023.42 1023.54 1023.66 1023.74 1023.83 1023.91 1024.15 1024.27 1024.31 1024.39 1024.46 1024.55 1024.62 1024.79 1024.91 1024.98 1025.06 1025.10 1024.94 1024.86 1024.86 1024.79 1024.62 1024.55 1024.43 1024.27 1024.19 1024.10 1023.98 1023.86 1023.74 1023.62 1023.47 1023.34 1023.22 1023.03 1022.71 1022.71 1022.74 1022.66 1022.54 1022.10 1021.91 1021.91 1021.39 1021.18 1020.83 1020.15 1020.22 1019.86 1019.39 1019.22 1019.03 1018.91 1018.74 1018.62 1018.51 1018.34 1018.18 1017.91 1017.66 1017.51 1017.30 1017.27 1017.30 1017.22 1017.18 1017.15
1023.22 1023.42 1023.47 1023.47 1023.51 1023.51 1023.54 1023.66 1023.83 1023.98 1024.10 1024.22 1024.31 1024.39 1024.51 1024.62 1024.74 1024.86 1024.91 1024.94 1025.06 1025.06 1024.98 1024.86 1024.86 1024.79 1024.74 1024.70 1024.58 1024.39 1024.19 1024.10 1024.03 1023.91 1023.74 1023.59 1023.42 1023.30 1023.07 1022.95 1022.78 1022.62 1022.51 1022.39 1022.27 1022.18 1022.07 1021.83 1021.51 1021.47 1021.34 1021.10 1020.86 1020.51 1019.98 1019.54 1019.54 1019.27 1019.07 1018.66 1018.59 1018.39 1018.18 1017.95 1017.71 1017.54 1017.42 1017.27 1017.18 1017.10 1017.03 1016.83 1016.74 1016.83
1023.18 1023.34 1023.51 1023.62 1023.62 1023.71 1023.83 1023.95 1024.10 1024.27 1024.43 1024.51 1024.55 1024.62 1024.74 1024.82 1024.91 1024.94 1024.98 1024.98 1025.03 1024.91 1024.94 1024.94 1024.91 1024.82 1024.62 1024.51 1024.39 1024.22 1024.15 1024.03 1023.91 1023.71 1023.42 1023.30 1023.15 1022.98 1022.78 1022.62 1022.47 1022.30 1022.18 1021.95 1021.78 1021.66 1021.59 1021.47 1021.22 1021.10 1021.07 1020.86 1020.66 1020.10 1020.10 1019.42 1019.47 1019.10 1018.98 1018.74 1018.34 1017.91 1017.71 1017.51 1017.39 1017.34 1017.18 1017.03 1016.98 1016.95 1016.83 1016.62 1016.54 1016.51
1023.34 1023.54 1023.74 1023.83 1023.86 1023.86 1023.95 1024.10 1024.34 1024.58 1024.79 1024.79 1024.79 1024.86 1024.91 1024.94 1024.98 1025.03 1025.03 1025.03 1025.06 1025.06 1024.98 1024.94 1024.79 1024.58 1024.46 1024.34 1024.27 1024.22 1024.10 1023.95 1023.66 1023.51 1023.30 1023.10 1022.83 1022.71 1022.47 1022.22 1021.98 1021.86 1021.66 1021.51 1021.39 1021.27 1021.18 1021.10 1020.98 1020.91 1020.78 1020.54 1020.42 1020.03 1019.74 1019.51 1018.95 1018.83 1018.66 1018.51 1017.95 1017.74 1017.54 1017.30 1017.10 1016.95 1017.03 1016.91 1016.66 1016.59 1016.51 1016.54 1016.47 1016.39
1023.54 1023.78 1024.03 1024.10 1024.22 1024.39 1024.51 1024.58 1024.67 1024.70 1024.82 1024.82 1024.91 1024.98 1025.06 1025.06 1025.10 1025.10 1025.10 1025.15 1025.10 1025.03 1024.94 1024.79 1024.67 1024.55 1024.46 1024.34 1024.22 1023.95 1023.83 1023.66 1023.42 1023.30 1023.15 1022.98 1022.71 1022.54 1022.30 1022.15 1021.74 1021.51 1021.15 1021.03 1020.91 1020.86 1020.78 1020.74 1020.71 1020.62 1020.59 1020.22 1019.98 1019.74 1019.34 1019.15 1018.71 1018.51 1018.10 1017.98 1018.03 1018.10 1017.30 1017.27 1017.07 1016.98 1016.83 1016.71 1016.62 1016.62 1016.59 1016.47 1016.34 1016.30
1023.78 1024.03 1024.31 1024.34 1024.43 1024.46 1024.58 1024.70 1024.79 1024.91 1025.03 1025.15 1025.15 1025.15 1025.19 1025.15 1025.19 1025.19 1025.22 1025.19 1025.15 1025.10 1025.10 1024.98 1024.79 1024.58 1024.39 1024.22 1024.03 1023.86 1023.71 1023.47 1023.22 1023.03 1022.91 1022.74 1022.51 1022.34 1022.15 1021.98 1021.59 1021.22 1020.91 1020.71 1020.51 1020.39 1020.39 1020.30 1020.22 1020.10 1019.98 1019.86 1019.71 1019.30 1019.15 1018.95 1018.71 1018.39 1018.10 1017.86 1017.74 1017.51 1017.42 1017.22 1016.95 1016.66 1016.54 1016.51 1016.47 1016.34 1016.10 1015.98 1015.98 1015.91
1023.98 1024.10 1024.22 1024.34 1024.43 1024.51 1024.62 1024.79 1024.94 1025.06 1025.10 1025.15 1025.27 1025.27 1025.22 1025.27 1025.22 1025.22 1025.22 1025.19 1025.15 1025.15 1025.06 1024.91 1024.79 1024.62 1024.43 1024.19 1023.91 1023.66 1023.47 1023.22 1023.03 1022.78 1022.62 1022.42 1022.30 1021.98 1021.95 1021.74 1021.39 1021.15 1020.83 1020.42 1020.15 1019.83 1019.78 1019.74 1019.71 1019.62 1019.47 1019.27 1019.15 1019.07 1019.07 1018.78 1018.30 1018.03 1017.74 1017.42 1017.42 1017.22 1017.03 1016.86 1016.86 1016.62 1016.47 1016.51 1016.39 1016.18 1015.98 1015.74 1015.74 1015.66
1023.74 1024.15 1024.31 1024.46 1024.51 1024.70 1024.82 1024.94 1025.06 1025.22 1025.31 1025.34 1025.34 1025.39 1025.43 1025.43 1025.34 1025.31 1025.22 1025.19 1025.06 1024.94 1024.86 1024.74 1024.58 1024.39 1024.22 1023.98 1023.71 1023.51 1023.30 1022.98 1022.71 1022.42 1022.30 1021.98 1021.83 1021.74 1021.59 1021.30 1020.98 1020.71 1020.51 1020.15 1019.78 1019.54 1019.34 1019.22 1019.18 1019.15 1019.03 1018.83 1018.54 1018.42 1018.34 1018.34 1018.03 1017.66 1017.27 1017.18 1017.18 1016.95 1016.59 1016.59 1016.51 1016.39 1016.34 1016.30 1016.18 1016.10 1015.86 1015.54 1015.39 1015.34
1023.83 1024.06 1024.22 1024.58 1024.79 1024.94 1025.06 1025.15 1025.31 1025.43 1025.46 1025.55 1025.62 1025.55 1025.55 1025.46 1025.34 1025.27 1025.15 1024.98 1024.86 1024.70 1024.43 1024.22 1024.10 1023.98 1023.83 1023.59 1023.30 1023.10 1022.83 1022.62 1022.30 1022.03 1021.86 1021.71 1021.54 1021.42 1021.18 1020.98 1020.59 1020.30 1020.07 1019.83 1019.51 1019.22 1019.15 1018.95 1018.91 1018.78 1018.59 1018.39 1018.10 1017.59 1017.59 1017.66 1017.66 1017.15 1016.95 1016.83 1016.78 1016.66 1016.39 1016.27 1016.27 1016.15 1016.07 1015.98 1015.98 1015.95 1015.66 1015.34 1015.15 1014.98
1024.10 1024.03 1024.15 1024.55 1024.79 1025.06 1025.10 1025.31 1025.43 1025.55 1025.58 1025.62 1025.62 1025.58 1025.46 1025.19 1025.15 1025.10 1024.94 1024.79 1024.74 1024.51 1024.31 1024.03 1023.78 1023.59 1023.39 1023.18 1022.98 1022.78 1022.54 1022.34 1022.10 1021.83 1021.59 1021.39 1021.22 1020.98 1020.74 1020.54 1020.27 1019.95 1019.71 1019.51 1019.22 1018.95 1018.86 1018.78 1018.78 1018.78 1018.59 1018.18 1018.03 1017.59 1017.10 1016.83 1016.91 1016.86 1016.86 1016.62 1016.47 1016.34 1016.15 1016.07 1015.98 1015.98 1015.95 1015.83 1015.71 1015.66 1015.51 1015.22 1014.98 1014.74
1024.03 1024.27 1024.31 1024.58 1024.94 1025.06 1025.15 1025.31 1025.43 1025.46 1025.55 1025.58 1025.51 1025.46 1025.43 1025.22 1025.03 1024.91 1024.79 1024.70 1024.58 1024.39 1024.15 1023.86 1023.59 1023.34 1023.15 1022.95 1022.71 1022.47 1022.27 1022.07 1021.83 1021.54 1021.30 1020.98 1020.83 1020.62 1020.42 1020.07 1019.86 1019.62 1019.39 1019.07 1018.86 1018.66 1018.66 1018.62 1018.54 1018.59 1018.39 1018.07 1017.86 1017.47 1016.86 1016.62 1016.42 1016.34 1016.39 1016.39 1016.18 1016.07 1016.03 1015.98 1015.98 1015.91 1015.66 1015.62 1015.51 1015.42 1015.27 1015.10 1014.86 1014.91
1023.98 1024.34 1024.46 1024.70 1024.91 1025.10 1025.27 1025.34 1025.46 1025.46 1025.43 1025.46 1025.46 1025.39 1025.22 1025.10 1024.94 1024.74 1024.62 1024.55 1024.34 1024.15 1023.91 1023.71 1023.42 1023.18 1022.95 1022.74 1022.51 1022.22 1021.98 1021.74 1021.51 1021.27 1020.95 1020.71 1020.51 1020.27 1020.03 1019.78 1019.47 1019.27 1018.98 1018.66 1018.51 1018.34 1018.27 1018.27 1018.27 1018.18 1018.18 1017.91 1017.59 1017.27 1016.91 1016.18 1016.30 1016.15 1016.10 1016.18 1016.22 1016.03 1015.91 1016.03 1015.95 1015.83 1015.59 1015.42 1015.42 1015.27 1015.22 1015.07 1014.98 1015.15
1024.06 1024.27 1024.46 1024.67 1024.91 1025.06 1025.19 1025.31 1025.43 1025.39 1025.34 1025.34 1025.31 1025.22 1025.10 1024.98 1024.82 1024.62 1024.46 1024.31 1024.19 1023.98 1023.78 1023.51 1023.22 1022.95 1022.74 1022.47 1022.22 1021.98 1021.74 1021.51 1021.27 1020.95 1020.66 1020.39 1020.18 1019.98 1019.74 1019.51 1019.22 1018.86 1018.71 1018.39 1018.15 1017.98 1017.95 1017.91 1017.78 1017.74 1017.71 1017.59 1017.34 1016.98 1016.66 1016.54 1016.22 1015.98 1016.03 1016.07 1016.07 1016.07 1015.78 1015.83 1015.83 1015.66 1015.59 1015.51 1015.54 1015.66 1015.59 1015.47 1015.39 1015.39
1024.27 1024.31 1024.43 1024.62 1024.91 1025.10 1025.19 1025.31 1025.34 1025.39 1025.34 1025.27 1025.27 1025.19 1025.10 1024.86 1024.67 1024.55 1024.39 1024.22 1024.03 1023.78 1023.59 1023.30 1022.98 1022.71 1022.42 1022.15 1021.91 1021.62 1021.42 1021.22 1020.98 1020.71 1020.42 1020.18 1019.91 1019.66 1019.42 1019.15 1018.91 1018.59 1018.34 1018.10 1017.86 1017.59 1017.51 1017.34 1017.27 1017.18 1017.15 1016.95 1016.74 1016.54 1016.47 1016.42 1016.18 1015.98 1015.95 1015.74 1015.71 1015.71 1015.51 1015.54 1015.59 1015.54 1015.34 1015.18 1015.42 1015.51 1015.59 1015.54 1015.47 1015.54
1024.27 1024.31 1024.58 1024.74 1024.91 1025.03 1025.10 1025.22 1025.27 1025.27 1025.22 1025.22 1025.22 1025.10 1024.94 1024.82 1024.70 1024.46 1024.27 1024.03 1023.83 1023.62 1023.34 1023.03 1022.74 1022.47 1022.15 1021.86 1021.62 1021.47 1021.30 1020.95 1020.66 1020.34 1020.10 1019.83 1019.54 1019.30 1019.03 1018.83 1018.59 1018.30 1018.15 1017.78 1017.51 1017.22 1016.91 1016.66 1016.59 1016.54 1016.59 1016.54 1016.47 1016.51 1016.51 1016.34 1016.03 1015.62 1015.47 1015.22 1015.22 1015.27 1015.18 1015.22 1015.22 1015.30 1015.22 1015.27 1015.34 1015.34 1015.39 1015.42 1015.51 1015.59
1024.15 1024.34 1024.70 1024.82 1024.86 1025.10 1025.22 1025.15 1025.10 1025.15 1025.19 1025.27 1025.19 1025.03 1024.94 1024.79 1024.55 1024.34 1024.10 1023.95 1023.71 1023.47 1023.15 1022.83 1022.51 1022.18 1021.86 1021.59 1021.39 1021.22 1021.07 1020.74 1020.42 1020.15 1019.83 1019.54 1019.27 1018.91 1018.62 1018.47 1018.22 1017.91 1017.78 1017.47 1017.10 1016.66 1016.27 1016.27 1016.30 1016.34 1016.39 1016.47 1016.47 1016.47 1016.15 1015.95 1015.66 1015.39 1015.18 1015.15 1015.15 1015.15 1015.10 1014.95 1014.83 1014.78 1014.78 1015.03 1015.18 1015.22 1015.42 1015.59 1015.51 1015.59
1024.22 1024.39 1024.62 1024.86 1025.06 1025.15 1025.15 1025.10 1025.15 1025.22 1025.22 1025.22 1025.10 1025.06 1024.91 1024.62 1024.43 1024.27 1024.06 1023.83 1023.54 1023.27 1022.95 1022.66 1022.34 1022.07 1021.78 1021.47 1021.22 1021.03 1020.78 1020.47 1020.15 1019.86 1019.54 1019.22 1018.98 1018.66 1018.34 1018.03 1017.78 1017.51 1017.30 1016.95 1016.59 1016.34 1016.10 1016.03 1016.03 1016.07 1016.10 1016.15 1016.03 1015.98 1015.83 1015.54 1015.39 1015.22 1015.10 1015.03 1015.03 1015.18 1015.18 1015.03 1014.71 1014.54 1014.66 1014.78 1014.95 1014.91 1014.91 1014.98 1015.10 1015.22
1024.22 1024.43 1024.62 1024.91 1024.98 1025.03 1025.06 1025.15 1025.19 1025.27 1025.22 1025.19 1025.10 1024.98 1024.86 1024.79 1024.55 1024.31 1024.10 1023.86 1023.54 1023.22 1022.86 1022.59 1022.27 1021.98 1021.66 1021.34 1021.07 1020.78 1020.47 1020.18 1019.86 1019.54 1019.22 1018.91 1018.59 1018.30 1017.98 1017.62 1017.39 1017.15 1016.86 1016.62 1016.34 1016.07 1015.83 1015.71 1015.62 1015.66 1015.78 1015.71 1015.62 1015.66 1015.54 1015.47 1015.30 1015.15 1015.07 1015.03 1015.18 1015.30 1015.34 1015.27 1015.15 1015.03 1014.95 1015.03 1015.07 1015.03 1014.95 1014.91 1014.86 1014.78
1024.31 1024.46 1024.70 1024.91 1024.98 1025.06 1025.19 1025.22 1025.19 1025.19 1025.19 1025.10 1024.94 1024.94 1024.91 1024.82 1024.58 1024.31 1024.03 1023.78 1023.51 1023.15 1022.86 1022.54 1022.22 1021.91 1021.54 1021.22 1020.98 1020.62 1020.18 1019.83 1019.54 1019.18 1018.86 1018.51 1018.18 1017.86 1017.59 1017.30 1017.03 1016.74 1016.51 1016.22 1016.10 1015.78 1015.54 1015.39 1015.27 1015.34 1015.42 1015.34 1015.30 1015.34 1015.22 1015.22 1015.15 1015.10 1015.07 1015.10 1015.27 1015.34 1015.34 1015.30 1015.30 1015.30 1015.34 1015.42 1015.42 1015.22 1015.10 1015.07 1015.07 1015.07
Wind_Speed
5 6 6 6 5 5 5 5 5 5 5 4 4 3 5 6 7 3 4 4 3 5 5 4 6 7 7 6 6 6 8 10 9 7 7 8 7 14 19 19 18 18 18 17 17 16 16 16 15 15 12 11 10 8 7 6 6 7 8 8 7 7 8 8 11 12 15 18 16 14 14 13 13 13
5 5 6 5 5 4 5 5 4 5 5 5 5 5 4 4 7 4 5 3 1 3 4 4 4 5 7 6 6 6 6 11 10 8 8 8 8 14 17 17 17 17 17 18 18 18 17 17 17 16 15 14 14 13 12 11 10 8 7 6 6 5 6 7 9 11 12 13 13 12 11 11 12 13
5 6 6 5 5 5 6 5 5 4 5 5 5 5 5 5 6 7 5 5 0 1 4 4 3 4 5 6 5 6 6 8 10 7 7 8 11 12 12 16 15 15 16 16 16 17 17 16 16 17 15 13 16 16 14 13 12 10 9 7 6 7 8 7 8 10 11 12 12 12 12 12 13 12
5 6 6 5 5 5 5 5 5 6 5 5 6 5 6 5 4 5 5 6 4 0 2 2 4 5 4 6 7 7 5 6 10 7 7 8 10 9 7 12 14 13 14 14 15 15 14 14 15 14 13 14 14 14 15 14 12 11 11 10 9 9 9 9 9 10 10 10 10 10 10 11 12 11
4 5 5 4 3 2 6 5 5 6 5 5 6 4 6 6 4 5 5 5 4 2 1 2 3 4 3 6 6 6 5 6 6 7 6 8 7 7 7 6 11 11 11 12 13 13 13 13 13 13 12 12 13 13 14 14 13 11 11 10 9 8 8 8 8 9 9 10 10 9 8 8 9 10
3 4 5 4 4 3 6 5 5 5 5 6 6 5 6 5 4 1 4 3 3 2 2 3 3 3 3 5 6 6 6 5 6 7 6 6 7 7 6 6 7 11 9 10 11 11 12 12 12 12 12 11 11 12 12 12 11 10 9 9 9 10 9 7 7 7 8 9 9 10 9 8 8 8
3 4 4 4 4 3 6 5 4 4 5 4 6 5 4 6 4 3 3 4 3 4 2 1 3 4 3 5 6 6 4 3 3 6 6 5 5 5 6 6 5 9 8 9 9 10 11 11 11 11 11 10 11 11 11 11 11 10 9 8 10 10 10 10 9 7 5 7 8 8 9 8 9 10
4 4 4 4 4 4 6 5 4 4 4 5 6 6 4 6 5 4 5 4 4 2 4 2 3 2 3 2 2 3 2 4 4 5 3 2 4 4 5 5 5 7 7 7 7 9 10 10 11 11 10 10 10 10 10 11 10 10 9 8 10 11 11 10 10 9 8 7 7 8 8 9 10 11
6 6 6 6 5 5 6 4 5 4 6 4 5 6 4 4 4 4 4 4 4 5 5 2 0 2 1 1 2 4 4 3 3 3 4 3 4 4 3 3 4 6 4 4 6 7 8 9 10 10 10 10 9 9 9 9 10 9 9 9 10 10 10 10 10 10 9 8 8 8 8 8 10 10
5 6 6 6 6 6 6 6 5 5 6 4 5 5 4 3 4 5 4 4 5 7 5 4 3 1 2 2 1 3 3 3 5 5 3 0 2 5 5 5 5 4 2 2 4 5 6 8 9 10 10 9 9 8 8 9 9 9 9 9 10 10 11 10 10 9 9 9 9 8 7 8 10 11
7 6 5 5 6 7 6 7 7 7 6 6 6 6 6 4 5 5 4 3 5 5 4 2 2 2 1 2 3 2 3 2 3 5 5 4 3 4 6 7 4 3 2 2 4 6 6 8 8 9 9 9 9 9 9 9 9 9 9 9 10 10 10 11 10 10 10 10 10 10 10 8 9 11
6 6 6 6 6 6 6 6 6 6 6 4 5 5 6 5 5 5 4 3 4 4 3 2 2 1 0 2 1 2 2 2 1 5 4 7 9 7 5 5 7 2 2 4 5 4 6 6 7 7 6 8 9 9 9 10 10 10 10 10 10 9 9 10 11 11 11 11 11 11 11 11 10 10
5 5 5 5 5 7 9 10 8 8 8 6 5 4 5 6 6 5 3 3 3 2 3 2 1 1 2 0 2 3 3 5 3 3 3 3 5 7 7 5 2 1 3 4 6 6 6 8 7 5 5 5 7 6 8 8 9 10 11 10 10 9 8 8 9 9 10 11 11 11 11 12 12 12
6 7 7 9 9 7 9 9 10 11 10 8 6 7 5 6 6 5 4 3 2 2 3 2 2 4 4 3 2 2 0 0 0 1 2 4 5 5 5 3 1 2 5 8 10 7 4 6 7 4 6 5 4 5 5 6 9 10 10 10 10 9 9 9 9 9 9 10 11 11 12 12 12 12
7 7 7 6 7 7 7 7 9 9 11 9 8 10 9 8 8 6 4 3 3 2 1 1 0 1 3 2 0 1 2 1 2 2 2 3 4 5 8 10 5 4 7 8 9 10 6 5 8 8 7 6 5 5 6 10 12 12 10 10 9 9 9 9 10 10 10 10 10 11 11 11 11 11
6 7 7 6 5 5 7 7 8 9 10 10 10 11 9 7 6 5 5 5 3 3 3 2 3 2 3 1 0 1 1 3 2 2 2 2 3 5 5 4 6 5 7 8 7 8 5 5 6 7 7 7 6 6 9 12 13 12 10 9 10 10 10 9 10 9 9 10 11 11 11 11 10 10
6 5 5 5 5 5 6 6 6 7 6 5 8 9 9 8 7 6 5 4 4 5 4 4 3 4 2 1 1 0 1 0 4 4 4 3 3 3 4 6 7 8 5 6 7 9 6 4 5 7 7 6 5 7 9 12 13 13 11 9 9 10 9 9 10 10 9 9 10 11 12 11 11 10
5 5 5 5 5 5 5 6 7 7 7 7 6 6 5 5 5 5 5 7 7 4 3 3 2 2 2 1 2 1 1 1 4 4 5 4 5 4 5 6 8 7 5 4 6 8 6 4 6 6 7 6 5 6 9 13 14 14 11 9 10 10 10 9 10 10 10 10 9 10 10 11 10 10
5 5 5 6 6 5 5 5 8 8 8 7 6 6 6 4 3 3 3 2 4 4 3 3 4 5 3 2 2 1 2 3 3 3 4 5 5 5 5 5 5 5 3 3 3 6 6 7 7 6 6 7 7 6 8 12 13 12 10 9 9 10 10 11 11 10 10 10 10 10 10 10 9 9
4 5 5 5 5 5 5 5 9 7 8 9 9 7 5 4 3 4 3 2 4 4 4 4 4 4 4 2 2 2 2 2 3 2 3 3 3 3 4 6 4 4 3 3 5 5 5 5 7 9 8 7 7 6 6 11 13 9 9 8 9 10 10 12 12 11 10 10 10 10 10 10 9 9
3 3 4 4 4 3 3 5 8 9 9 7 7 6 5 3 4 3 2 5 6 5 4 3 4 4 4 2 3 4 5 4 3 2 2 4 1 3 6 6 4 5 3 4 4 4 6 3 6 10 8 8 8 8 7 6 5 7 7 8 8 9 11 12 13 12 10 11 10 11 10 9 10 10
5 6 7 4 5 5 4 6 9 9 8 7 7 7 7 6 5 3 1 1 2 3 3 4 2 2 2 2 3 5 5 5 5 4 4 3 1 4 4 7 5 6 4 5 2 3 7 6 5 9 9 9 4 4 7 5 4 4 6 10 11 10 11 12 13 13 11 10 10 10 10 9 9 6
5 6 7 8 6 6 7 9 8 8 6 6 5 5 5 5 4 3 3 4 3 1 1 1 4 1 0 1 2 3 5 4 4 4 5 3 3 5 5 6 6 7 2 2 0 7 7 6 6 6 10 10 7 6 3 3 8 9 9 8 7 10 11 12 12 12 12 10 9 9 9 8 7 5
6 6 6 7 10 10 11 10 10 9 8 7 5 4 4 4 3 3 3 3 3 2 1 2 1 3 3 3 3 3 3 3 3 3 3 3 4 5 5 5 5 8 5 1 3 8 7 5 8 6 8 10 8 5 8 11 7 6 6 7 6 9 11 11 9 11 11 11 9 8 7 7 5 4
6 5 6 5 8 11 12 11 11 11 10 7 5 4 4 2 3 4 3 2 2 2 1 2 3 3 3 3 3 3 3 3 3 3 3 4 4 5 5 5 6 7 6 6 8 6 8 8 11 9 9 9 12 13 10 10 10 6 6 6 8 7 6 6 5 6 8 11 10 7 7 6 5 3
5 5 5 5 7 11 11 10 10 10 9 8 5 5 6 6 6 3 2 2 2 2 2 2 3 3 3 3 3 4 3 4 4 4 4 4 5 5 6 7 8 9 9 3 6 6 9 11 9 11 10 10 13 11 13 10 9 10 7 6 5 6 6 6 6 6 6 6 6 5 5 6 7 7
6 4 5 5 7 9 10 9 9 9 9 7 5 7 6 6 6 4 3 3 2 2 2 2 3 3 3 4 4 4 5 4 4 5 5 5 6 6 6 7 8 9 8 7 7 8 8 11 9 10 12 11 14 14 13 13 10 7 6 6 6 5 5 5 6 7 6 6 7 8 6 8 8 8
5 4 4 4 7 8 9 9 8 8 8 6 8 8 7 6 5 3 2 2 1 1 2 3 3 4 4 4 4 5 5 5 5 6 6 7 7 7 7 8 9 8 9 8 8 8 8 10 11 11 12 12 13 14 15 12 11 10 11 8 8 6 7 7 7 7 6 6 5 5 4 5 3 3
5 6 7 7 8 9 10 11 10 9 10 10 9 9 8 5 3 3 2 2 2 3 3 4 4 4 4 5 6 5 5 6 6 6 5 5 6 7 7 8 7 8 7 7 8 8 8 8 11 11 10 11 13 14 12 14 11 12 10 11 11 8 8 7 6 6 7 6 5 4 5 5 4 3
10 9 9 10 10 10 8 7 6 6 5 7 8 8 6 4 3 3 3 3 3 3 4 4 5 5 5 5 5 5 5 5 7 8 9 9 9 9 9 9 9 7 7 8 9 9 9 8 9 10 11 11 11 13 12 13 12 10 9 10 12 11 10 10 10 7 6 7 6 5 4 3 5 3
7 8 7 7 9 9 11 10 7 6 5 6 5 4 3 3 3 2 1 2 3 4 4 5 5 5 5 5 6 8 9 9 9 9 9 9 9 9 9 10 10 10 10 9 7 7 7 7 8 9 11 11 11 12 12 12 13 12 13 11 9 10 8 7 6 6 4 4 4 3 4 5 5 5
6 7 7 8 5 6 7 6 5 5 4 3 2 3 3 3 2 2 3 3 2 3 3 4 5 7 8 9 9 8 8 9 9 9 9 9 10 9 9 9 10 10 10 9 9 9 8 9 9 9 10 10 12 12 11 11 11 11 12 10 10 10 10 11 11 10 10 9 7 6 6 5 6 5
7 7 7 4 5 5 4 4 3 3 3 3 2 3 4 3 3 3 3 4 4 4 6 8 8 8 8 8 8 8 8 9 9 9 9 9 9 9 9 11 11 11 11 11 10 11 7 7 9 10 9 10 12 12 11 12 12 11 12 11 9 11 11 10 9 10 8 7 8 7 8 6 5 4
7 4 5 4 4 4 3 3 3 2 2 2 3 3 3 4 3 3 3 3 3 3 6 8 8 8 8 9 9 9 9 10 9 9 9 10 9 9 9 11 11 10 10 12 12 11 11 9 6 7 9 10 10 12 12 12 12 12 12 11 12 13 11 10 8 8 8 8 7 8 8 8 6 5
5 5 5 4 4 3 2 3 1 1 1 2 2 3 3 3 3 3 3 4 3 3 5 5 6 7 8 9 9 9 9 9 10 10 9 9 9 9 9 10 11 11 11 11 11 11 10 10 9 9 8 8 10 10 12 12 11 12 11 11 11 11 11 8 7 7 7 7 6 8 8 8 7 5
4 4 6 4 3 3 3 1 0 0 0 2 2 2 3 4 3 3 4 4 4 5 6 7 7 7 8 8 9 9 9 9 9 9 9 8 8 9 9 10 11 11 11 11 11 10 8 10 8 9 10 10 10 11 7 13 15 8 10 9 8 9 9 7 6 5 5 6 6 7 6 6 7 4
5 3 4 4 3 2 2 0 0 1 2 2 2 2 3 4 4 4 5 5 4 5 6 7 8 9 9 9 9 9 9 9 9 9 9 10 10 10 10 10 10 10 11 11 9 9 6 8 7 8 9 10 10 11 10 1 11 14 8 8 8 6 7 6 5 5 5 5 5 5 5 5 5 1
5 4 4 3 4 2 1 0 0 1 2 2 2 3 3 4 5 5 5 4 4 5 6 7 8 9 9 9 9 9 9 9 9 9 9 9 10 9 9 10 10 10 11 11 9 9 6 7 7 8 8 9 10 10 10 6 4 4 7 7 7 6 4 4 4 4 4 2 4 3 3 4 2 1
7 5 5 4 3 3 1 1 1 1 2 2 3 3 4 5 4 4 4 4 5 5 7 8 9 9 9 9 9 9 8 8 9 9 9 9 9 9 9 9 10 9 9 10 9 8 7 8 8 8 8 9 10 9 8 9 8 5 1 3 4 5 6 4 5 4 3 3 1 1 3 3 5 5
5 5 5 5 3 2 2 1 1 1 2 2 2 3 4 4 5 5 5 4 5 6 7 8 9 9 9 9 9 8 8 9 9 9 9 9 9 10 9 9 9 10 10 10 10 9 8 8 7 7 7 8 8 8 6 6 8 5 6 8 13 11 8 5 5 5 5 2 2 2 2 1 1 1
6 3 2 3 3 2 1 0 1 1 2 2 4 4 4 4 5 5 4 5 5 7 8 8 9 9 8 7 7 8 8 9 8 8 8 8 9 9 10 11 10 9 9 10 10 10 10 7 7 9 9 7 6 5 6 6 8 6 5 3 3 5 9 8 7 5 4 2 3 2 3 2 2 1
4 3 2 1 1 0 0 1 2 2 2 2 2 3 4 4 4 7 6 6 6 6 7 8 8 8 8 7 7 7 8 8 8 8 8 8 9 9 10 9 9 9 8 9 10 10 8 6 4 5 5 5 4 5 7 8 9 7 5 2 1 2 5 6 8 10 7 4 4 3 2 1 1 2
4 3 3 2 0 0 0 1 1 2 2 2 2 3 4 5 5 6 5 6 6 6 7 9 8 8 9 8 7 7 8 8 8 9 9 9 9 9 9 8 8 8 9 10 9 7 7 6 5 5 5 5 6 6 7 8 7 6 5 4 2 1 3 7 8 3 2 5 2 1 1 2 3 2
4 3 2 1 0 0 1 1 2 1 2 2 2 2 4 5 6 6 5 6 6 7 7 7 8 8 8 8 8 8 8 8 8 9 9 9 10 10 9 8 8 9 8 8 8 8 6 6 5 4 5 5 5 5 7 6 6 5 5 3 1 2 2 1 2 6 8 10 11 6 4 2 2 2
3 3 2 1 0 1 1 1 1 2 2 2 2 3 4 4 5 5 5 6 6 7 8 8 8 8 8 8 8 8 8 9 9 8 8 8 8 7 7 8 8 8 7 7 7 7 6 6 5 3 4 5 4 5 5 5 5 3 3 1 2 2 1 1 2 4 5 5 9 8 7 9 11 15
Wind_Direction
86 76 76 91 92 73 77 74 78 95 92 94 96 99 134 143 129 129 76 23 56 38 11 50 20 20 20 19 18 25 31 28 30 37 40 37 36 30 34 31 30 31 32 33 34 35 33 30 28 24 21 17 13 14 9 352 335 320 312 310 307 298 286 272 266 265 262 261 264 250 236 224 218 214
84 81 65 69 71 46 60 59 48 65 80 78 73 77 83 107 125 149 121 114 255 67 38 48 21 12 20 12 21 27 26 23 33 33 39 38 29 33 36 34 33 35 38 38 38 36 34 32 29 25 21 21 16 11 6 6 5 356 343 327 310 294 283 273 265 260 261 261 260 260 255 245 236 218
85 84 80 78 81 81 85 78 68 58 70 76 77 73 71 57 102 115 126 117 31 140 52 20 19 20 25 18 21 21 24 19 28 34 36 38 33 37 34 34 34 35 35 37 37 36 34 30 29 29 24 19 25 19 12 2 2 0 6 6 351 341 326 306 295 288 284 282 276 268 254 244 237 228
89 93 88 88 105 103 94 85 84 88 75 91 84 74 72 59 65 91 91 104 115 348 76 38 351 18 39 29 28 23 18 17 25 26 31 26 29 34 28 28 32 34 34 33 34 34 33 30 28 26 25 25 23 20 18 13 8 10 13 15 18 13 358 343 328 312 302 295 289 282 272 256 253 247
95 98 102 93 72 59 91 95 93 87 89 81 73 68 78 73 51 91 102 106 115 117 148 34 16 356 9 47 22 30 19 16 19 25 30 26 28 27 22 18 25 29 33 32 32 33 32 30 26 22 20 22 21 18 15 14 14 13 15 18 18 13 11 2 346 331 319 310 303 300 292 283 271 258
82 119 110 84 74 69 103 110 102 111 108 104 91 65 84 82 61 360 110 95 120 148 337 31 7 14 7 63 26 29 18 17 19 25 22 30 30 24 14 13 13 14 28 29 31 31 29 26 23 18 15 16 15 12 10 7 7 8 6 13 15 8 2 351 345 334 325 315 306 303 301 290 276 271
126 114 124 136 119 111 89 81 100 104 98 92 92 99 97 98 82 39 76 119 116 129 128 283 21 13 5 56 26 20 27 24 31 28 22 24 22 23 13 9 0 1 14 23 26 26 23 20 15 12 10 7 8 5 3 1 358 357 358 360 6 1 353 346 337 327 311 309 305 298 291 288 285 277
168 162 148 182 152 124 115 118 106 91 99 105 112 106 97 102 97 76 65 72 131 149 106 28 52 359 21 26 42 20 45 37 34 34 6 20 32 15 11 4 357 350 2 16 22 20 17 11 6 4 360 359 359 358 356 354 351 349 349 347 351 350 346 341 335 328 322 309 303 301 295 291 283 274
177 175 185 187 167 143 128 141 128 133 115 120 120 119 123 114 119 89 86 85 100 118 104 102 243 332 354 360 4 16 15 17 40 28 16 17 15 10 8 349 347 337 356 2 11 12 7 0 356 351 348 345 346 346 347 344 341 340 340 342 344 341 339 336 333 328 321 314 304 296 295 294 289 283
216 193 196 186 172 168 159 173 162 148 140 131 120 124 129 126 114 107 93 101 104 103 116 122 95 355 44 358 335 13 18 7 7 5 10 354 21 1 358 8 348 345 348 3 5 360 354 353 341 337 334 332 331 335 335 333 331 329 331 336 337 337 335 332 327 320 312 306 300 289 279 279 281 282
237 228 209 192 188 190 183 167 171 165 155 155 159 156 148 144 121 108 117 112 97 108 123 105 85 98 54 26 2 356 3 8 58 360 339 4 34 15 359 340 343 337 348 9 357 348 343 330 328 322 319 318 320 324 325 325 324 324 329 334 334 333 330 328 324 319 313 305 297 289 280 263 259 264
222 225 220 210 205 199 191 173 171 164 160 158 149 172 134 142 124 120 134 110 110 115 102 102 124 74 136 354 270 285 326 359 64 35 5 340 341 348 352 332 316 337 358 343 341 336 328 321 309 301 295 297 304 313 317 321 321 323 328 332 330 327 330 333 331 327 323 316 306 294 284 275 263 252
223 235 245 255 239 197 202 193 182 185 169 156 159 177 148 139 123 122 93 107 100 79 92 105 133 141 66 102 353 2 31 35 358 333 5 318 322 324 325 330 282 360 344 336 321 327 340 324 322 321 316 318 315 308 309 309 312 321 328 330 326 326 329 332 330 326 322 319 315 307 295 282 273 263
231 225 219 230 233 224 229 215 191 186 180 175 171 163 154 128 118 116 121 118 103 74 52 35 46 12 342 343 9 3 3 294 284 328 341 331 322 314 297 257 151 33 19 343 329 324 343 316 310 314 317 311 305 304 310 316 316 318 324 325 323 323 325 328 328 325 320 316 314 310 305 297 286 276
235 243 246 242 230 217 214 215 206 191 187 182 153 151 158 159 146 141 134 149 135 136 189 193 116 188 297 303 210 282 322 347 351 343 338 321 334 354 356 332 330 115 13 341 321 313 336 326 323 323 317 311 307 302 301 307 309 313 322 323 319 318 323 327 327 326 326 322 315 309 304 300 294 288
228 234 240 243 236 222 215 192 185 195 190 170 155 152 152 139 119 136 158 155 150 169 169 209 225 179 249 271 156 346 1 334 327 328 324 334 342 330 324 299 298 320 8 327 313 297 315 326 313 315 317 317 311 303 302 304 305 307 317 320 315 315 323 328 326 320 324 331 328 320 309 299 292 287
234 232 233 245 242 237 212 188 173 165 173 166 142 127 107 99 97 92 87 102 154 159 165 191 213 201 200 301 297 203 330 148 320 323 325 328 317 304 290 290 303 309 335 317 306 308 314 326 325 316 309 307 305 302 300 299 299 300 307 312 305 308 319 329 324 319 324 334 332 328 324 314 304 295
257 250 242 242 244 227 194 178 169 169 155 135 113 101 83 78 66 65 77 84 90 107 156 160 194 208 165 207 189 190 155 308 314 325 311 327 315 306 294 302 293 292 308 307 312 298 312 339 321 308 307 304 294 291 291 292 292 293 300 301 297 304 316 325 322 317 322 326 326 326 325 322 316 307
255 248 238 230 236 214 197 183 175 161 148 127 116 100 92 82 76 87 85 117 122 120 129 149 155 163 179 176 183 191 206 248 260 274 281 293 290 292 295 276 252 281 267 275 306 291 315 320 313 305 309 308 300 294 292 283 283 288 292 287 290 300 317 326 323 315 315 319 323 325 324 320 315 313
278 257 235 224 218 205 197 185 174 163 140 130 124 118 115 108 87 63 14 79 115 117 133 140 145 160 168 171 192 214 214 235 250 268 283 280 268 292 303 300 306 280 275 277 288 279 295 306 303 309 313 307 296 296 286 284 285 292 288 284 289 305 317 318 317 312 308 309 313 320 321 320 320 318
353 331 245 217 181 147 145 145 146 135 134 122 124 124 122 116 104 102 74 56 62 78 97 121 120 122 137 168 226 249 244 231 210 191 264 279 273 314 305 298 303 294 327 292 261 273 290 294 305 305 306 301 302 301 290 280 300 304 290 281 296 311 312 311 312 310 304 301 305 313 314 320 325 321
23 16 50 97 100 104 89 116 126 138 130 125 129 133 128 128 127 148 132 114 49 49 93 79 45 134 135 185 240 242 242 230 218 200 258 269 260 276 265 285 292 295 301 278 273 278 286 312 304 303 305 302 263 268 281 291 305 280 289 311 312 304 301 303 304 307 307 298 295 301 310 320 328 330
31 28 34 58 91 99 113 108 109 110 107 110 118 119 117 120 131 164 155 127 124 68 87 340 23 65 359 267 290 289 292 276 239 216 243 254 242 267 271 276 295 303 262 237 142 306 306 320 308 316 319 310 303 279 263 338 327 315 305 291 288 288 290 292 296 296 298 293 285 289 302 317 331 329
44 43 53 55 74 87 87 83 79 73 84 103 103 103 105 130 127 161 140 148 131 127 91 290 319 293 309 311 309 299 300 295 276 252 233 231 241 258 272 271 260 276 282 208 313 293 292 286 294 308 299 304 303 305 304 299 290 286 289 289 276 280 284 290 289 286 289 292 285 277 287 300 323 319
90 72 59 58 71 76 75 76 75 76 74 82 82 84 116 135 118 116 100 104 94 73 44 353 333 311 311 303 301 293 290 281 276 269 256 243 227 242 260 266 261 261 249 262 271 278 288 300 296 298 289 280 281 294 295 296 296 276 279 277 281 280 283 285 286 287 289 284 282 272 263 272 288 282
88 98 95 80 76 80 80 77 76 72 70 68 72 70 87 92 93 78 74 110 42 15 10 334 320 308 303 307 306 298 288 282 278 272 270 259 247 233 235 250 267 280 287 242 233 263 284 291 290 293 291 290 289 289 297 294 296 293 269 261 272 277 273 281 283 282 281 280 284 277 276 278 272 265
130 122 111 106 92 85 81 78 74 68 61 62 65 70 60 52 49 43 29 25 19 351 319 300 288 292 288 288 289 290 289 279 275 275 269 270 268 263 250 244 239 253 270 277 265 265 265 278 281 279 287 289 289 294 289 295 298 298 283 276 271 268 273 268 270 271 271 276 276 286 277 259 251 252
121 119 107 108 101 90 86 82 78 69 61 65 57 58 60 59 50 56 44 34 6 297 309 306 297 291 288 283 281 279 282 286 287 283 278 276 271 267 265 259 260 256 263 259 254 250 253 266 277 274 277 285 287 288 293 288 289 292 294 294 281 269 262 260 260 258 262 266 274 271 278 283 256 237
114 117 118 109 98 96 91 86 79 69 67 70 72 70 71 76 65 58 43 16 353 337 316 300 289 280 276 279 281 287 290 293 289 281 278 271 271 268 264 263 260 263 261 255 254 251 250 256 274 280 277 276 280 283 284 288 291 289 289 292 287 273 270 265 259 266 271 267 260 259 258 261 268 235
107 105 103 102 98 91 90 85 78 79 74 72 69 65 59 51 52 32 27 359 350 311 297 295 294 293 293 293 299 294 290 295 296 301 302 305 301 299 298 297 288 271 252 247 255 260 260 260 265 277 280 277 275 279 281 285 281 281 277 271 276 284 272 271 272 271 262 263 253 237 244 237 253 278
96 87 87 91 90 87 80 79 81 77 63 57 42 37 33 35 18 20 349 319 302 299 297 298 296 298 296 296 297 304 308 304 302 306 305 304 304 306 304 300 295 293 287 281 253 247 250 252 260 267 275 278 276 272 278 277 279 281 278 274 274 273 286 292 286 280 265 258 274 278 271 258 259 244
98 103 100 86 64 68 61 57 36 38 49 55 35 17 12 352 347 341 335 320 298 294 299 292 298 304 311 310 308 307 305 304 305 308 306 305 302 304 304 298 294 295 294 291 285 268 241 250 255 257 256 265 274 279 277 275 274 277 277 273 270 271 272 274 280 281 279 285 284 276 268 266 267 253
89 93 88 84 72 60 76 60 56 32 26 13 14 6 351 352 341 338 340 325 315 317 322 320 317 314 314 311 311 308 306 305 305 304 302 299 297 299 296 292 294 295 297 298 292 292 272 236 242 245 248 255 266 267 270 273 271 273 275 275 277 276 278 272 267 271 274 269 268 269 274 263 239 244
109 97 94 92 100 97 89 78 58 27 9 355 350 338 331 325 316 309 295 285 289 284 317 317 317 315 315 311 312 310 306 305 301 295 284 290 288 283 282 293 293 290 287 289 292 292 295 285 258 243 244 248 249 251 257 263 271 274 271 276 276 278 276 274 264 260 262 261 267 273 267 268 255 233
111 122 112 110 97 94 90 94 82 31 7 328 317 305 302 292 289 284 287 280 277 269 299 302 294 293 294 298 298 294 291 289 291 294 291 289 284 277 277 282 286 288 287 286 287 290 291 292 290 286 277 271 272 260 223 228 258 259 270 269 272 271 275 268 263 262 259 263 246 252 265 268 268 253
104 112 118 120 117 120 97 111 284 259 284 290 289 288 308 303 292 285 289 288 286 291 298 300 303 301 299 295 291 290 290 287 287 289 289 286 283 281 280 278 280 281 281 281 282 282 282 284 280 283 287 288 288 288 288 210 219 248 261 270 269 267 267 269 265 266 262 259 247 242 252 263 266 266
122 120 120 129 140 131 135 166 214 269 273 278 287 286 284 290 292 291 286 289 283 283 294 300 303 304 303 301 297 293 290 289 288 288 287 288 286 284 281 279 277 277 279 279 275 275 264 272 268 271 279 284 284 285 283 233 222 227 244 260 267 261 271 276 277 276 257 249 264 242 246 252 262 275
139 135 130 135 151 152 132 155 171 268 283 288 282 290 284 283 293 295 298 296 295 301 303 305 303 299 296 296 298 295 294 288 286 285 284 286 287 285 282 283 284 281 282 282 278 272 260 262 262 261 264 271 280 280 288 279 271 248 232 244 259 274 277 279 276 268 281 267 260 286 281 255 250 121
133 141 144 150 155 150 160 202 193 257 285 292 297 294 298 298 296 300 311 308 304 304 307 305 303 301 298 296 294 292 291 292 292 290 287 286 282 281 280 278 280 277 277 279 275 269 256 254 254 254 250 261 263 272 277 286 281 282 256 219 258 276 269 265 280 277 271 272 252 33 41 57 82 88
134 129 139 137 143 151 204 208 227 251 277 287 294 299 296 302 310 310 307 305 305 307 307 304 302 302 301 300 300 298 292 286 285 285 287 285 282 281 279 278 278 282 283 280 281 276 267 258 248 248 247 247 256 261 269 277 281 279 276 262 241 237 255 259 255 264 275 243 154 159 141 158 125 316
129 127 136 125 136 158 176 249 267 292 300 304 301 296 308 307 301 300 300 304 305 307 307 305 302 301 301 300 300 299 294 291 285 284 283 282 280 279 279 281 282 278 278 279 279 279 270 261 249 241 243 256 261 277 276 263 268 273 271 258 265 262 259 248 243 237 235 162 172 186 172 164 136 110
133 134 134 137 132 140 199 286 307 321 313 305 305 318 310 302 296 308 307 304 297 301 302 303 305 307 305 305 303 297 292 289 288 286 285 285 284 280 277 276 274 275 269 270 273 272 274 274 257 245 247 245 243 242 256 261 272 281 276 280 242 334 356 327 242 226 221 167 163 159 127 104 102 113
131 133 140 147 126 160 268 323 320 319 303 310 318 309 314 322 321 321 317 315 313 306 307 310 306 306 305 302 298 296 294 289 286 286 285 286 283 281 278 271 267 268 269 271 271 272 279 276 266 261 251 239 241 238 254 263 269 278 285 289 288 30 19 18 39 75 141 139 128 127 175 173 163 192
133 131 129 122 127 46 2 333 320 310 312 313 303 319 330 320 314 313 314 311 311 308 308 306 307 306 305 304 300 298 291 291 291 291 288 285 283 282 279 274 272 270 269 269 274 275 274 278 269 260 259 251 242 234 246 254 261 269 281 289 71 87 78 29 42 57 59 42 26 25 63 60 13 348
125 124 119 155 148 344 293 297 314 317 313 308 332 336 321 313 309 311 312 312 309 308 306 305 306 304 304 304 304 299 294 292 291 284 280 280 281 277 276 276 276 274 270 269 273 278 278 283 282 260 246 252 244 237 249 251 263 276 270 197 132 111 68 32 59 65 55 49 19 31 71 82 92 97